Find Starlink 32268

NORAD ID: 60372 Int'l Des: 2024-138 Owner: SPXS Country: US Constellation: starlink operational
LEOCIRCULAR

現在のビュー

3D地球を読み込み中...

About Starlink 32268

Starlink 32268 (NORAD 60372) is a starlink constellation satellite (v2 mini) launched Aug 4, 2024 by SPXS of US. It operates in LEO, CIRCULAR orbit with a mass of 730.00 kg.

Starlink 32268について

説明を読み込み中...

次回通過

Passes for default location (London). Set your location on the main map for personalized predictions.

高度履歴

Loading altitude history...

軌道要素

1 60372U 24138T 26175.28469332 .00001025 00000-0 46717-4 0 9991
2 60372 53.1589 174.7769 0000958 84.7322 275.3788 15.30197328106949
Epoch: Jun 24, 2026 • Age: 24 hours

現在のステータス

高度 476.5 km
速度 7.63 km/s
衛星直下点 30.13°N, 175.31°W
打ち上げ日 Aug 4, 2024
運用期間 1.8 years
タイプ internet

技術仕様

分類 Payload
質量 730.00 kg
乾燥質量 700.00 kg
総質量 730.00 kg
長さ 0.30 m
直径 4.10 m
スパン 29.00 m
形状 Box + pan
製造者 SPXS
バスタイプ Starlink V2M
フェーズステータス In Orbit
所有者/国 SPXS/US

Most Searched